Regional Weather Roundup
Issued by NWS

Home | Current Version | Previous Version | Text Only | Print | Product List | Glossary Off
Versions: 1 2 3 4 5 6 7 8 9 10 11 12 13 14 15 16 17 18 19 20 21 22 23 24 25 26 27 28 29 30 31 32 33 34 35 36 37 38 39 40 41 42 43 44 45 46 47 48 49 50

000
ASUS45 KSLC 310710
RWRUT

UTAH REGIONAL WEATHER ROUNDUP
NATIONAL WEATHER SERVICE SALT LAKE CITY UT
100 AM MDT MON AUG 31 2015

UTZ001>011-023>025-310800-

NORTHERN UTAH

CITY           SKY/WX    TMP DP  RH WIND       PRES   REMARKS
BRIGHAM CITY   CLEAR     70  31  23 W7        30.02R
HILL AFB       PTCLDY    68  42  37 E5        30.03R
LOGAN          CLEAR     57  42  57 SW5       30.06R
OGDEN          CLEAR     66  45  46 NW7       30.01R
PROVO AIRPORT  MOCLDY    66  48  52 E9        30.01R
SALT LAKE CITY PTCLDY    71  47  42 N3        29.99R
VERNAL         CLOUDY    67  50  54 N9        30.11R
WENDOVER       CLEAR     72  28  20 NE10      30.05R
HEBER CITY     MOCLDY    61  50  67 NE5       30.10R
WEST JORDAN    PTCLDY    70  43  37 NW3       30.03R

$$

UTZ012>022-026-027-310800-

SOUTHERN/CENTRAL UTAH

CITY           SKY/WX    TMP DP  RH WIND       PRES   REMARKS
BLANDING       CLOUDY    62  54  76 CALM      30.25R
BRYCE CANYON   PTCLDY    52  49  89 CALM      30.30R
CEDAR CITY     PTCLDY    69  45  41 VRB3      30.10R
DELTA          PTCLDY    71  36  28 S10       30.00R
HANKSVILLE     PTCLDY    70  59  68 N15       30.05R
MILFORD        CLEAR     69  37  30 SW14      30.02R
MOAB/CYNLANDS  CLEAR     66  58  75 SE8       30.05S
PRICE          CLEAR     62  50  64 E7        30.14R
ST GEORGE      PTSUNNY   81  55  41 E14       29.94R
KANAB          PTCLDY    64  59  82 N9        30.16S

$$

REGIONAL REPORTS     COLORADO/ARIZONA

CITY           SKY/WX    TMP DP  RH WIND       PRES   REMARKS
CRAIG, CO      CLOUDY    61  49  64 VRB5G20   30.21R
GRAND JUNCTION CLOUDY    62  59  90 SW7       30.14F
RIFLE          RAIN      60  57  89 CALM      30.27R FOG
MONTROSE       MOCLDY    62  56  80 NE3       30.23R
CORTEZ         CLEAR     61  54  77 CALM      30.18R
PAGE, AZ       PTCLDY    71  58  63 S6        30.08R
GRAND CANYON     N/A    N/A N/A N/A MISG      30.24S
KINGMAN        CLEAR     79  42  26 S12       29.95R
FLAGSTAFF      MOCLDY    55  54  96 CALM      30.28F

$$

REGIONAL REPORTS    NEVADA/IDAHO/WYOMING

CITY           SKY/WX    TMP DP  RH WIND       PRES   REMARKS
LAS VEGAS, NV  PTCLDY    88  40  18 S6        29.77R
ELY            CLEAR     62  27  26 VRB3      30.14R
ELKO           CLEAR     54  25  32 CALM      30.10R
POCATELLO, ID  CLEAR     56  32  40 SW9       30.06R
BURLEY         CLEAR     51  38  60 CALM      30.04R
EVANSTON, WY   PTCLDY    57  44  62 N6        30.19R
ROCK SPRINGS   CLOUDY    57  50  77 SE15      30.16S
KEMMERER       PTCLDY    54  37  54 NW7       30.20R

$$



USA.gov is the U.S. government's official web portal to all federal, state and local government web resources and services.